User: anonymous   Login
Location: Fort Wayne
(41.1310°N, 85.1290°W)
Time: 08:29:20
(UTC-04:00)
Language:

Meteor 2-9 Rocket - Orbit

View from above orbital plane
View from above orbital plane
View from above satellite
View from above satellite

Ground track
Ground track

The orbit data is extracted from the following two-line orbital elements,

1 13719U 82116B   14304.80652197  .00000097  00000-0  42890-4 0  5459
2 13719 081.2567 220.1278 0071378 208.5933 204.7543 14.14491873644731
Epoch (UTC): 31 October 2014 19:21:23
Eccentricity: 0.0071378
inclination: 81.2567°
perigee height: 792 km
apogee height: 895 km
right ascension of ascending node: 220.1278°
argument of perigee: 208.5933°
revolutions per day: 14.14491873
mean anomaly at epoch: 204.7543°
orbit number at epoch: 64473

The dashed part of the orbit path shows where the satellite is in the earth's shadow,  

DLR